| time (UTC) | temp F | wind direction | speed MPH | gust MPH | rain 1hr in | rain 24hr in | rain mn in | humidity % | barometer mb |
| 20260901203601 | 65 | 110 | 11.0 | 20.0 | 0.00 | 0.00 | 0.00 | 72 | 1007.5 |
| 20260901203101 | 65 | 126 | 12.0 | 22.0 | 0.00 | 0.00 | 0.00 | 72 | 1007.5 |
| 20260901202831 | 65 | 79 | 11.0 | 23.0 | 0.00 | 0.00 | 0.00 | 73 | 1007.5 |
| 20260901202101 | 65 | 98 | 11.0 | 23.0 | 0.00 | 0.00 | 0.00 | 72 | 1007.5 |
| 20260901201601 | 65 | 105 | 10.0 | 20.0 | 0.00 | 0.00 | 0.00 | 73 | 1007.4 |
| 20260901201101 | 66 | 135 | 9.0 | 18.0 | 0.00 | 0.00 | 0.00 | 72 | 1007.4 |
| 20260901200601 | 66 | 153 | 8.0 | 18.0 | 0.00 | 0.00 | 0.00 | 72 | 1007.5 |
| 20260901200101 | 66 | 211 | 8.0 | 19.0 | 0.00 | 0.00 | 0.00 | 70 | 1007.4 |
| 20260901195601 | 67 | 167 | 8.0 | 20.0 | 0.00 | 0.00 | 0.00 | 71 | 1007.5 |
| 20260901195101 | 67 | 126 | 8.0 | 20.0 | 0.00 | 0.00 | 0.00 | 70 | 1007.5 |
| 20260901194604 | 67 | 155 | 9.0 | 20.0 | 0.00 | 0.00 | 0.00 | 71 | 1007.6 |
| 20260901194102 | 67 | 147 | 8.0 | 20.0 | 0.00 | 0.00 | 0.00 | 70 | 1007.6 |
| 20260901193833 | 67 | 218 | 7.0 | 19.0 | 0.00 | 0.00 | 0.00 | 70 | 1007.7 |
| 20260901193101 | 68 | 227 | 5.0 | 12.0 | 0.00 | 0.00 | 0.00 | 69 | 1007.7 |
| 20260901192832 | 67 | 181 | 4.0 | 10.0 | 0.00 | 0.00 | 0.00 | 69 | 1007.7 |
| 20260901192104 | 67 | 231 | 4.0 | 11.0 | 0.00 | 0.00 | 0.00 | 68 | 1007.7 |
| 20260901191602 | 69 | 176 | 5.0 | 11.0 | 0.00 | 0.00 | 0.00 | 66 | 1007.8 |
| 20260901191332 | 68 | 103 | 5.0 | 11.0 | 0.00 | 0.00 | 0.00 | 67 | 1007.8 |
| 20260901190602 | 68 | 161 | 4.0 | 9.0 | 0.00 | 0.00 | 0.00 | 67 | 1007.9 |
| 20260901190101 | 68 | 254 | 4.0 | 9.0 | 0.00 | 0.00 | 0.00 | 67 | 1007.8 |
| 20260901185828 | 67 | 37 | 5.0 | 15.0 | 0.00 | 0.00 | 0.00 | 66 | 1007.8 |
| 20260901185051 | 67 | 203 | 5.0 | 15.0 | 0.00 | 0.00 | 0.00 | 66 | 1007.7 |
| 20260901184545 | 68 | 200 | 3.0 | 10.0 | 0.00 | 0.00 | 0.00 | 67 | 1007.9 |
| 20260901184306 | 67 | 340 | 3.0 | 9.0 | 0.00 | 0.00 | 0.00 | 69 | 1007.8 |
| 20260901183535 | 67 | 313 | 4.0 | 14.0 | 0.00 | 0.00 | 0.00 | 70 | 1007.9 |
| 20260901183035 | 67 | 253 | 4.0 | 14.0 | 0.00 | 0.00 | 0.00 | 69 | 1007.9 |
| 20260901182536 | 67 | 188 | 4.0 | 15.0 | 0.00 | 0.00 | 0.00 | 70 | 1007.9 |
| 20260901182035 | 65 | 120 | 4.0 | 15.0 | 0.00 | 0.00 | 0.00 | 72 | 1007.9 |
| 20260901181534 | 65 | 260 | 4.0 | 11.0 | 0.00 | 0.00 | 0.00 | 72 | 1008.0 |
| 20260901181033 | 65 | 100 | 3.0 | 11.0 | 0.00 | 0.00 | 0.00 | 71 | 1007.9 |
| 20260901180530 | 65 | 285 | 3.0 | 8.0 | 0.00 | 0.00 | 0.00 | 71 | 1008.0 |
| 20260901180032 | 65 | 309 | 3.0 | 8.0 | 0.00 | 0.00 | 0.00 | 72 | 1008.0 |
| 20260901175532 | 65 | 322 | 4.0 | 9.0 | 0.00 | 0.00 | 0.00 | 71 | 1008.0 |
| 20260901175032 | 65 | 266 | 3.0 | 10.0 | 0.00 | 0.00 | 0.00 | 71 | 1008.0 |
| 20260901174757 | 65 | 161 | 3.0 | 14.0 | 0.00 | 0.00 | 0.00 | 72 | 1008.0 |
| 20260901174255 | 65 | 25 | 3.0 | 14.0 | 0.00 | 0.00 | 0.00 | 73 | 1008.0 |
| 20260901173529 | 64 | 301 | 3.0 | 10.0 | 0.00 | 0.00 | 0.00 | 73 | 1008.0 |
| 20260901173029 | 64 | 307 | 4.0 | 11.0 | 0.00 | 0.00 | 0.00 | 72 | 1008.0 |
| 20260901172529 | 64 | 322 | 5.0 | 13.0 | 0.00 | 0.00 | 0.00 | 72 | 1007.9 |
| 20260901172029 | 64 | 196 | 7.0 | 16.0 | 0.00 | 0.00 | 0.00 | 72 | 1007.9 |
| 20260901171529 | 64 | 207 | 8.0 | 17.0 | 0.00 | 0.00 | 0.00 | 72 | 1007.8 |
| 20260901171029 | 64 | 114 | 8.0 | 19.0 | 0.00 | 0.00 | 0.00 | 73 | 1007.9 |
| 20260901170527 | 64 | 138 | 6.0 | 19.0 | 0.00 | 0.00 | 0.00 | 72 | 1008.0 |
| 20260901170021 | 64 | 222 | 5.0 | 13.0 | 0.00 | 0.00 | 0.00 | 72 | 1008.0 |
| 20260901165517 | 64 | 145 | 6.0 | 14.0 | 0.00 | 0.00 | 0.00 | 71 | 1008.1 |
| 20260901165017 | 65 | 151 | 5.0 | 14.0 | 0.00 | 0.00 | 0.00 | 71 | 1007.9 |
| 20260901164517 | 64 | 172 | 5.0 | 13.0 | 0.00 | 0.00 | 0.00 | 71 | 1008.0 |
| 20260901164015 | 65 | 236 | 5.0 | 13.0 | 0.00 | 0.00 | 0.00 | 71 | 1008.0 |
| 20260901163515 | 64 | 139 | 4.0 | 9.0 | 0.00 | 0.00 | 0.00 | 72 | 1007.9 |
| 20260901163015 | 64 | 215 | 3.0 | 9.0 | 0.00 | 0.00 | 0.00 | 73 | 1007.9 |
| 20260901162515 | 64 | 118 | 2.0 | 9.0 | 0.00 | 0.00 | 0.00 | 73 | 1008.1 |
| 20260901162015 | 64 | 285 | 2.0 | 8.0 | 0.00 | 0.00 | 0.00 | 73 | 1008.0 |
| 20260901161747 | 63 | 226 | 2.0 | 8.0 | 0.00 | 0.00 | 0.00 | 73 | 1008.0 |
| 20260901161011 | 62 | 327 | 1.0 | 5.0 | 0.00 | 0.00 | 0.00 | 76 | 1008.1 |
| 20260901160510 | 62 | 319 | 1.0 | 3.0 | 0.00 | 0.00 | 0.00 | 76 | 1008.2 |
| 20260901160010 | 62 | 319 | 1.0 | 3.0 | 0.00 | 0.00 | 0.00 | 75 | 1008.1 |
| 20260901155239 | 63 | 305 | 2.0 | 4.0 | 0.00 | 0.00 | 0.00 | 74 | 1008.1 |
| 20260901154505 | 63 | 305 | 1.0 | 4.0 | 0.00 | 0.00 | 0.00 | 74 | 1008.1 |
| 20260901154004 | 63 | 263 | 1.0 | 5.0 | 0.00 | 0.00 | 0.00 | 75 | 1008.1 |
| 20260901153504 | 63 | 62 | 2.0 | 5.0 | 0.00 | 0.00 | 0.00 | 75 | 1008.1 |
| 20260901153234 | 63 | 205 | 1.0 | 5.0 | 0.00 | 0.00 | 0.00 | 75 | 1008.0 |
| 20260901152504 | 63 | 259 | 2.0 | 5.0 | 0.00 | 0.00 | 0.00 | 74 | 1008.1 |
| 20260901152006 | 64 | 150 | 2.0 | 5.0 | 0.00 | 0.00 | 0.00 | 72 | 1008.0 |
| 20260901151501 | 64 | 103 | 2.0 | 4.0 | 0.00 | 0.00 | 0.00 | 71 | 1008.0 |
| 20260901150954 | 65 | 241 | 3.0 | 8.0 | 0.00 | 0.00 | 0.00 | 70 | 1007.9 |
| 20260901150713 | 65 | 254 | 3.0 | 8.0 | 0.00 | 0.00 | 0.00 | 70 | 1007.9 |
| 20260901150209 | 65 | 169 | 5.0 | 12.0 | 0.00 | 0.00 | 0.00 | 70 | 1007.9 |
| 20260901145438 | 65 | 132 | 6.0 | 12.0 | 0.00 | 0.00 | 0.00 | 70 | 1007.9 |
| 20260901144938 | 65 | 146 | 5.0 | 10.0 | 0.00 | 0.00 | 0.00 | 70 | 1007.8 |
| 20260901143934 | 64 | 130 | 5.0 | 9.0 | 0.00 | 0.00 | 0.00 | 70 | 1007.7 |
| 20260901143433 | 65 | 207 | 4.0 | 9.0 | 0.00 | 0.00 | 0.00 | 70 | 1007.7 |
| 20260901142934 | 64 | 130 | 4.0 | 7.0 | 0.00 | 0.00 | 0.00 | 71 | 1007.7 |
| 20260901142434 | 64 | 132 | 3.0 | 7.0 | 0.00 | 0.00 | 0.00 | 72 | 1007.6 |
| 20260901142206 | 63 | 176 | 3.0 | 8.0 | 0.00 | 0.00 | 0.00 | 73 | 1007.7 |
| 20260901141432 | 62 | 141 | 3.0 | 9.0 | 0.00 | 0.00 | 0.00 | 75 | 1007.7 |
| 20260901140934 | 62 | 122 | 3.0 | 9.0 | 0.00 | 0.00 | 0.00 | 76 | 1007.6 |
| 20260901135933 | 60 | 123 | 2.0 | 5.0 | 0.00 | 0.00 | 0.00 | 79 | 1007.6 |
| 20260901134933 | 60 | 122 | 1.0 | 3.0 | 0.00 | 0.00 | 0.00 | 79 | 1007.5 |
| 20260901134702 | 60 | 122 | 1.0 | 3.0 | 0.00 | 0.00 | 0.00 | 79 | 1007.5 |
| 20260901133933 | 59 | 122 | 0.0 | 3.0 | 0.00 | 0.00 | 0.00 | 80 | 1007.5 |
| 20260901133432 | 59 | 122 | 0.0 | 0.0 | 0.00 | 0.00 | 0.00 | 80 | 1007.5 |
| 20260901132932 | 59 | 122 | 0.0 | 0.0 | 0.00 | 0.00 | 0.00 | 80 | 1007.6 |
| 20260901132432 | 59 | 122 | 0.0 | 0.0 | 0.00 | 0.00 | 0.00 | 80 | 1007.4 |
| 20260901131939 | 59 | 122 | 0.0 | 0.0 | 0.00 | 0.00 | 0.00 | 80 | 1007.4 |
| 20260901131435 | 59 | 122 | 0.0 | 0.0 | 0.00 | 0.00 | 0.00 | 80 | 1007.4 |
| 20260901130932 | 60 | 122 | 0.0 | 0.0 | 0.00 | 0.00 | 0.00 | 79 | 1007.3 |
| 20260901130433 | 60 | 122 | 0.0 | 0.0 | 0.00 | 0.00 | 0.00 | 79 | 1007.3 |
| 20260901125933 | 60 | 122 | 0.0 | 0.0 | 0.00 | 0.00 | 0.00 | 79 | 1007.2 |
| 20260901125654 | 60 | 122 | 0.0 | 0.0 | 0.00 | 0.00 | 0.00 | 79 | 1007.4 |
| 20260901124931 | 60 | 122 | 0.0 | 0.0 | 0.00 | 0.00 | 0.00 | 78 | 1007.4 |
| 20260901124721 | 60 | 122 | 0.0 | 0.0 | 0.00 | 0.00 | 0.00 | 78 | 1007.4 |
| 20260901124159 | 60 | 122 | 0.0 | 1.0 | 0.00 | 0.00 | 0.00 | 78 | 1007.4 |
| 20260901123430 | 60 | 122 | 0.0 | 1.0 | 0.00 | 0.00 | 0.00 | 78 | 1007.4 |
| 20260901122929 | 60 | 122 | 1.0 | 3.0 | 0.00 | 0.00 | 0.00 | 78 | 1007.4 |
| 20260901122428 | 60 | 122 | 2.0 | 4.0 | 0.00 | 0.00 | 0.00 | 78 | 1007.4 |
| 20260901121929 | 60 | 122 | 2.0 | 4.0 | 0.00 | 0.00 | 0.00 | 77 | 1007.4 |
| 20260901121654 | 60 | 124 | 1.0 | 3.0 | 0.00 | 0.00 | 0.00 | 77 | 1007.4 |
| 20260901120926 | 60 | 124 | 1.0 | 2.0 | 0.00 | 0.00 | 0.00 | 77 | 1007.5 |
| 20260901120428 | 60 | 124 | 2.0 | 2.0 | 0.00 | 0.00 | 0.00 | 77 | 1007.5 |
| 20260901120150 | 60 | 124 | 2.0 | 3.0 | 0.00 | 0.00 | 0.00 | 77 | 1007.5 |
| 20260901115424 | 61 | 124 | 2.0 | 3.0 | 0.00 | 0.00 | 0.00 | 77 | 1007.4 |
| 20260901114924 | 61 | 124 | 2.0 | 3.0 | 0.00 | 0.00 | 0.00 | 77 | 1007.4 |
| 20260901114422 | 61 | 124 | 2.0 | 3.0 | 0.00 | 0.00 | 0.00 | 77 | 1007.4 |
| 20260901113921 | 61 | 124 | 2.0 | 3.0 | 0.00 | 0.00 | 0.00 | 77 | 1007.4 |
| 20260901113419 | 61 | 124 | 2.0 | 3.0 | 0.00 | 0.00 | 0.00 | 77 | 1007.5 |
| 20260901112917 | 60 | 124 | 2.0 | 3.0 | 0.00 | 0.00 | 0.00 | 78 | 1007.5 |
| 20260901112636 | 61 | 124 | 2.0 | 3.0 | 0.00 | 0.00 | 0.00 | 78 | 1007.6 |
| 20260901111915 | 61 | 124 | 2.0 | 3.0 | 0.00 | 0.00 | 0.00 | 78 | 1007.6 |
| 20260901110912 | 61 | 124 | 2.0 | 3.0 | 0.00 | 0.00 | 0.00 | 78 | 1007.7 |
| 20260901110410 | 61 | 124 | 2.0 | 3.0 | 0.00 | 0.00 | 0.00 | 78 | 1007.6 |
| 20260901105908 | 61 | 124 | 2.0 | 3.0 | 0.00 | 0.00 | 0.00 | 78 | 1007.6 |
| 20260901105408 | 61 | 124 | 2.0 | 3.0 | 0.00 | 0.00 | 0.00 | 78 | 1007.6 |
| 20260901104906 | 61 | 124 | 2.0 | 3.0 | 0.00 | 0.00 | 0.00 | 78 | 1007.7 |
| 20260901104404 | 61 | 124 | 2.0 | 3.0 | 0.00 | 0.00 | 0.00 | 77 | 1007.7 |
| 20260901103902 | 61 | 124 | 2.0 | 3.0 | 0.00 | 0.00 | 0.00 | 78 | 1007.6 |
| 20260901103401 | 61 | 124 | 2.0 | 3.0 | 0.00 | 0.00 | 0.00 | 78 | 1007.6 |
| 20260901102858 | 61 | 124 | 2.0 | 3.0 | 0.00 | 0.00 | 0.00 | 78 | 1007.6 |
| 20260901102352 | 61 | 124 | 2.0 | 3.0 | 0.00 | 0.00 | 0.00 | 78 | 1007.5 |
| 20260901101346 | 61 | 124 | 2.0 | 3.0 | 0.00 | 0.00 | 0.00 | 78 | 1007.6 |
| 20260901100346 | 61 | 124 | 2.0 | 3.0 | 0.00 | 0.00 | 0.00 | 77 | 1007.6 |
| 20260901095844 | 61 | 124 | 2.0 | 3.0 | 0.00 | 0.00 | 0.00 | 77 | 1007.6 |
| 20260901095344 | 62 | 124 | 2.0 | 3.0 | 0.00 | 0.00 | 0.00 | 77 | 1007.6 |
| 20260901095112 | 61 | 124 | 2.0 | 3.0 | 0.00 | 0.00 | 0.00 | 77 | 1007.8 |
| 20260901094344 | 61 | 124 | 2.0 | 3.0 | 0.00 | 0.00 | 0.00 | 77 | 1007.6 |
| 20260901093844 | 61 | 124 | 3.0 | 3.0 | 0.00 | 0.00 | 0.00 | 77 | 1007.6 |
| 20260901092844 | 61 | 132 | 2.0 | 3.0 | 0.00 | 0.00 | 0.00 | 78 | 1007.6 |
| 20260901092342 | 61 | 133 | 2.0 | 3.0 | 0.00 | 0.00 | 0.00 | 78 | 1007.6 |
| 20260901092109 | 61 | 135 | 2.0 | 3.0 | 0.00 | 0.00 | 0.00 | 78 | 1007.6 |
| 20260901091343 | 61 | 135 | 3.0 | 3.0 | 0.00 | 0.00 | 0.00 | 78 | 1007.6 |
| 20260901090840 | 61 | 137 | 3.0 | 3.0 | 0.00 | 0.00 | 0.00 | 77 | 1007.6 |
| 20260901090338 | 61 | 137 | 2.0 | 3.0 | 0.00 | 0.00 | 0.00 | 77 | 1007.6 |
| 20260901085837 | 62 | 137 | 2.0 | 3.0 | 0.00 | 0.00 | 0.00 | 76 | 1007.6 |
| 20260901085334 | 62 | 137 | 2.0 | 3.0 | 0.00 | 0.00 | 0.00 | 76 | 1007.6 |
| 20260901084835 | 62 | 137 | 2.0 | 3.0 | 0.00 | 0.00 | 0.00 | 76 | 1007.7 |
| 20260901084602 | 62 | 137 | 2.0 | 3.0 | 0.00 | 0.00 | 0.00 | 76 | 1007.7 |
| 20260901083831 | 62 | 137 | 2.0 | 3.0 | 0.00 | 0.00 | 0.00 | 76 | 1007.6 |
| 20260901083325 | 62 | 137 | 2.0 | 3.0 | 0.00 | 0.00 | 0.00 | 77 | 1007.7 |
| 20260901082816 | 62 | 137 | 2.0 | 3.0 | 0.00 | 0.00 | 0.00 | 77 | 1007.7 |
| 20260901082310 | 62 | 137 | 2.0 | 3.0 | 0.00 | 0.00 | 0.00 | 76 | 1007.7 |
| 20260901081806 | 62 | 137 | 2.0 | 3.0 | 0.00 | 0.00 | 0.00 | 77 | 1007.7 |
| 20260901081306 | 62 | 137 | 2.0 | 3.0 | 0.00 | 0.00 | 0.00 | 77 | 1007.7 |
| 20260901080805 | 62 | 137 | 2.0 | 3.0 | 0.00 | 0.00 | 0.00 | 77 | 1007.7 |
| 20260901080305 | 61 | 137 | 2.0 | 3.0 | 0.00 | 0.00 | 0.00 | 77 | 1007.8 |
| 20260901075804 | 62 | 137 | 2.0 | 3.0 | 0.00 | 0.00 | 0.00 | 77 | 1007.7 |
| 20260901075307 | 61 | 137 | 2.0 | 3.0 | 0.00 | 0.00 | 0.00 | 77 | 1007.7 |
| 20260901074802 | 61 | 137 | 2.0 | 3.0 | 0.00 | 0.00 | 0.00 | 77 | 1007.6 |
| 20260901074524 | 62 | 137 | 2.0 | 3.0 | 0.00 | 0.00 | 0.00 | 77 | 1007.6 |
| 20260901073802 | 62 | 137 | 2.0 | 3.0 | 0.00 | 0.00 | 0.00 | 77 | 1007.7 |
| 20260901073302 | 62 | 137 | 2.0 | 3.0 | 0.00 | 0.00 | 0.00 | 77 | 1007.7 |
| 20260901072801 | 62 | 137 | 2.0 | 3.0 | 0.00 | 0.00 | 0.00 | 76 | 1007.7 |
| 20260901072523 | 62 | 137 | 2.0 | 3.0 | 0.00 | 0.00 | 0.00 | 76 | 1007.7 |
| 20260901071800 | 62 | 137 | 2.0 | 3.0 | 0.00 | 0.00 | 0.00 | 76 | 1007.7 |
| 20260901071302 | 62 | 137 | 2.0 | 3.0 | 0.00 | 0.00 | 0.00 | 76 | 1007.7 |
| 20260901071030 | 62 | 137 | 3.0 | 3.0 | 0.00 | 0.00 | 0.00 | 76 | 1007.7 |
| 20260901070302 | 62 | 144 | 2.0 | 3.0 | 0.00 | 0.00 | 0.00 | 75 | 1007.6 |
| 20260901065756 | 62 | 144 | 0.0 | 3.0 | 0.00 | 0.00 | 0.00 | 74 | 1007.7 |
| 20260901065255 | 62 | 189 | 0.0 | 0.0 | 0.00 | 0.00 | 0.00 | 73 | 1007.7 |
| 20260901064753 | 62 | 190 | 0.0 | 0.0 | 0.00 | 0.00 | 0.00 | 72 | 1007.8 |
| 20260901064253 | 63 | 191 | 0.0 | 2.0 | 0.00 | 0.00 | 0.00 | 71 | 1007.9 |
| 20260901063756 | 63 | 190 | 1.0 | 4.0 | 0.00 | 0.00 | 0.00 | 71 | 1007.8 |
| 20260901063252 | 64 | 191 | 1.0 | 4.0 | 0.00 | 0.00 | 0.00 | 71 | 1007.8 |
| 20260901063012 | 63 | 195 | 1.0 | 3.0 | 0.00 | 0.00 | 0.00 | 71 | 1007.9 |
| 20260901062247 | 63 | 213 | 1.0 | 3.0 | 0.00 | 0.00 | 0.00 | 70 | 1008.0 |
| 20260901061747 | 63 | 210 | 1.0 | 3.0 | 0.00 | 0.00 | 0.00 | 70 | 1007.9 |
| 20260901061246 | 63 | 211 | 1.0 | 3.0 | 0.00 | 0.00 | 0.00 | 69 | 1007.9 |
| 20260901060746 | 64 | 211 | 1.0 | 3.0 | 0.00 | 0.00 | 0.00 | 69 | 1008.0 |
| 20260901060246 | 64 | 203 | 1.0 | 3.0 | 0.00 | 0.00 | 0.00 | 69 | 1008.0 |
| 20260901055747 | 64 | 201 | 2.0 | 4.0 | 0.00 | 0.00 | 0.00 | 69 | 1008.0 |
| 20260901055508 | 64 | 201 | 2.0 | 4.0 | 0.00 | 0.00 | 0.00 | 69 | 1008.0 |
| 20260901054742 | 63 | 207 | 2.0 | 4.0 | 0.00 | 0.00 | 0.00 | 68 | 1008.0 |
| 20260901054243 | 64 | 183 | 1.0 | 4.0 | 0.00 | 0.00 | 0.00 | 67 | 1008.0 |
| 20260901053744 | 64 | 220 | 1.0 | 3.0 | 0.00 | 0.00 | 0.00 | 68 | 1008.0 |
| 20260901053243 | 64 | 216 | 1.0 | 3.0 | 0.00 | 0.00 | 0.00 | 67 | 1008.0 |
| 20260901052743 | 64 | 222 | 1.0 | 3.0 | 0.00 | 0.00 | 0.00 | 68 | 1008.0 |
| 20260901052244 | 64 | 155 | 2.0 | 3.0 | 0.00 | 0.00 | 0.00 | 65 | 1008.0 |
| 20260901051742 | 64 | 156 | 2.0 | 4.0 | 0.00 | 0.00 | 0.00 | 64 | 1008.0 |
| 20260901050739 | 64 | 155 | 2.0 | 4.0 | 0.00 | 0.00 | 0.00 | 64 | 1008.0 |
| 20260901045737 | 65 | 139 | 1.0 | 3.0 | 0.00 | 0.00 | 0.00 | 64 | 1007.9 |
| 20260901045504 | 64 | 162 | 1.0 | 3.0 | 0.00 | 0.00 | 0.00 | 65 | 1008.0 |
| 20260901044740 | 65 | 166 | 1.0 | 4.0 | 0.00 | 0.00 | 0.00 | 63 | 1007.9 |
| 20260901044240 | 65 | 167 | 2.0 | 4.0 | 0.00 | 0.00 | 0.00 | 64 | 1007.8 |
| 20260901043739 | 66 | 99 | 2.0 | 6.0 | 0.00 | 0.00 | 0.00 | 63 | 1007.8 |
| 20260901043236 | 65 | 202 | 2.0 | 6.0 | 0.00 | 0.00 | 0.00 | 63 | 1007.8 |
| 20260901042736 | 66 | 199 | 2.0 | 7.0 | 0.00 | 0.00 | 0.00 | 63 | 1007.8 |
| 20260901042236 | 65 | 108 | 1.0 | 7.0 | 0.00 | 0.00 | 0.00 | 66 | 1007.9 |
| 20260901041733 | 65 | 273 | 1.0 | 4.0 | 0.00 | 0.00 | 0.00 | 67 | 1007.9 |
| 20260901041233 | 64 | 138 | 2.0 | 4.0 | 0.00 | 0.00 | 0.00 | 69 | 1007.9 |
| 20260901040734 | 64 | 147 | 2.0 | 4.0 | 0.00 | 0.00 | 0.00 | 68 | 1007.9 |
| 20260901040455 | 64 | 151 | 2.0 | 4.0 | 0.00 | 0.00 | 0.00 | 68 | 1007.8 |
| 20260901035733 | 64 | 127 | 2.0 | 4.0 | 0.00 | 0.00 | 0.00 | 68 | 1007.9 |
| 20260901035233 | 64 | 127 | 1.0 | 3.0 | 0.00 | 0.00 | 0.00 | 69 | 1007.9 |
| 20260901034733 | 64 | 127 | 1.0 | 3.0 | 0.00 | 0.00 | 0.00 | 69 | 1007.9 |
| 20260901034231 | 63 | 126 | 2.0 | 3.0 | 0.00 | 0.00 | 0.00 | 70 | 1007.9 |
| 20260901033956 | 64 | 126 | 1.0 | 3.0 | 0.00 | 0.00 | 0.00 | 69 | 1007.9 |
| 20260901033230 | 64 | 126 | 1.0 | 4.0 | 0.00 | 0.00 | 0.00 | 69 | 1007.9 |
| 20260901032730 | 64 | 126 | 1.0 | 4.0 | 0.00 | 0.00 | 0.00 | 69 | 1007.8 |
| 20260901032231 | 63 | 93 | 0.0 | 4.0 | 0.00 | 0.00 | 0.00 | 69 | 1007.9 |
| 20260901031731 | 64 | 78 | 0.0 | 4.0 | 0.00 | 0.00 | 0.00 | 70 | 1007.9 |
| 20260901031233 | 64 | 89 | 1.0 | 5.0 | 0.00 | 0.00 | 0.00 | 70 | 1007.9 |
| 20260901030730 | 63 | 64 | 2.0 | 5.0 | 0.00 | 0.00 | 0.00 | 70 | 1007.8 |
| 20260901030230 | 63 | 253 | 1.0 | 4.0 | 0.00 | 0.00 | 0.00 | 71 | 1007.8 |
| 20260901025733 | 63 | 105 | 1.0 | 5.0 | 0.00 | 0.00 | 0.00 | 71 | 1007.9 |
| 20260901025230 | 63 | 102 | 1.0 | 5.0 | 0.00 | 0.00 | 0.00 | 71 | 1007.9 |
| 20260901024730 | 63 | 97 | 1.0 | 4.0 | 0.00 | 0.00 | 0.00 | 73 | 1007.9 |
| 20260901024230 | 63 | 97 | 1.0 | 4.0 | 0.00 | 0.00 | 0.00 | 72 | 1008.0 |
| 20260901023729 | 64 | 97 | 1.0 | 4.0 | 0.00 | 0.00 | 0.00 | 72 | 1008.0 |
| 20260901023222 | 64 | 148 | 1.0 | 3.0 | 0.00 | 0.00 | 0.00 | 73 | 1008.0 |
| 20260901022716 | 64 | 148 | 1.0 | 3.0 | 0.00 | 0.00 | 0.00 | 73 | 1008.1 |
| 20260901022217 | 64 | 149 | 1.0 | 3.0 | 0.00 | 0.00 | 0.00 | 73 | 1008.1 |
| 20260901021942 | 64 | 155 | 1.0 | 5.0 | 0.00 | 0.00 | 0.00 | 73 | 1008.1 |
| 20260901021445 | 65 | 300 | 1.0 | 5.0 | 0.00 | 0.00 | 0.00 | 73 | 1008.2 |
| 20260901020208 | 65 | 49 | 1.0 | 6.0 | 0.00 | 0.00 | 0.00 | 73 | 1008.2 |
| 20260901015707 | 65 | 334 | 1.0 | 6.0 | 0.00 | 0.00 | 0.00 | 72 | 1008.2 |
| 20260901015204 | 65 | 103 | 2.0 | 6.0 | 0.00 | 0.00 | 0.00 | 73 | 1008.3 |
| 20260901014707 | 65 | 104 | 2.0 | 6.0 | 0.00 | 0.00 | 0.00 | 74 | 1008.3 |
| 20260901014206 | 65 | 94 | 1.0 | 5.0 | 0.00 | 0.00 | 0.00 | 74 | 1008.4 |
| 20260901013705 | 65 | 91 | 1.0 | 5.0 | 0.00 | 0.00 | 0.00 | 74 | 1008.6 |
| 20260901013204 | 65 | 64 | 2.0 | 7.0 | 0.00 | 0.00 | 0.00 | 73 | 1008.5 |
| 20260901012937 | 65 | 107 | 2.0 | 7.0 | 0.00 | 0.00 | 0.00 | 73 | 1008.5 |
| 20260901012202 | 65 | 86 | 2.0 | 7.0 | 0.00 | 0.00 | 0.00 | 73 | 1008.6 |
| 20260901011701 | 65 | 82 | 2.0 | 5.0 | 0.00 | 0.00 | 0.00 | 71 | 1008.6 |
| 20260901011433 | 66 | 125 | 2.0 | 5.0 | 0.00 | 0.00 | 0.00 | 70 | 1008.6 |
| 20260901010700 | 66 | 80 | 2.0 | 4.0 | 0.00 | 0.00 | 0.00 | 70 | 1008.6 |
| 20260901010201 | 66 | 61 | 2.0 | 4.0 | 0.00 | 0.00 | 0.00 | 70 | 1008.6 |
| 20260901005701 | 66 | 67 | 1.0 | 4.0 | 0.00 | 0.00 | 0.00 | 70 | 1008.7 |
| 20260901005202 | 67 | 37 | 1.0 | 4.0 | 0.00 | 0.00 | 0.00 | 69 | 1008.7 |
| 20260901004700 | 67 | 318 | 1.0 | 5.0 | 0.00 | 0.00 | 0.00 | 67 | 1008.7 |
| 20260901004202 | 67 | 295 | 2.0 | 5.0 | 0.00 | 0.00 | 0.00 | 67 | 1008.6 |
| 20260901003701 | 67 | 299 | 2.0 | 5.0 | 0.00 | 0.00 | 0.00 | 68 | 1008.8 |
| 20260901003432 | 67 | 127 | 2.0 | 4.0 | 0.00 | 0.00 | 0.00 | 67 | 1008.8 |
| 20260901002701 | 68 | 102 | 2.0 | 4.0 | 0.00 | 0.00 | 0.00 | 66 | 1008.8 |
| 20260901002203 | 68 | 306 | 2.0 | 4.0 | 0.00 | 0.00 | 0.00 | 66 | 1008.8 |
| 20260901001930 | 69 | 320 | 2.0 | 6.0 | 0.00 | 0.00 | 0.00 | 67 | 1009.0 |
| 20260901001200 | 68 | 312 | 2.0 | 6.0 | 0.00 | 0.00 | 0.00 | 68 | 1008.9 |
| 20260901000701 | 67 | 51 | 2.0 | 6.0 | 0.00 | 0.00 | 0.00 | 69 | 1009.1 |
| 20260901000203 | 69 | 280 | 2.0 | 6.0 | 0.00 | 0.00 | 0.00 | 66 | 1009.0 |
| 20260831235701 | 68 | 95 | 2.0 | 6.0 | 0.00 | 0.00 | 0.00 | 65 | 1009.0 |
| 20260831235201 | 67 | 118 | 1.0 | 5.0 | 0.00 | 0.00 | 0.00 | 67 | 1009.1 |
| 20260831234927 | 67 | 52 | 1.0 | 3.0 | 0.00 | 0.00 | 0.00 | 68 | 1009.2 |
| 20260831234201 | 68 | 356 | 2.0 | 4.0 | 0.00 | 0.00 | 0.00 | 66 | 1009.2 |
| 20260831233700 | 68 | 261 | 2.0 | 7.0 | 0.00 | 0.00 | 0.00 | 69 | 1009.4 |
| 20260831233201 | 67 | 328 | 2.0 | 7.0 | 0.00 | 0.00 | 0.00 | 68 | 1009.4 |
| 20260831232658 | 68 | 355 | 2.0 | 5.0 | 0.00 | 0.00 | 0.00 | 69 | 1009.5 |
| 20260831232153 | 67 | 316 | 2.0 | 5.0 | 0.00 | 0.00 | 0.00 | 68 | 1009.6 |
| 20260831231652 | 68 | 309 | 2.0 | 7.0 | 0.00 | 0.00 | 0.00 | 68 | 1009.7 |
| 20260831231155 | 68 | 309 | 2.0 | 7.0 | 0.00 | 0.00 | 0.00 | 69 | 1009.7 |
| 20260831230652 | 67 | 308 | 2.0 | 5.0 | 0.00 | 0.00 | 0.00 | 68 | 1009.9 |
| 20260831230149 | 69 | 309 | 2.0 | 5.0 | 0.00 | 0.00 | 0.00 | 68 | 1009.9 |
| 20260831225650 | 67 | 311 | 2.0 | 9.0 | 0.00 | 0.00 | 0.00 | 69 | 1010.0 |
| 20260831225421 | 67 | 307 | 3.0 | 9.0 | 0.00 | 0.00 | 0.00 | 69 | 1010.0 |
| 20260831224649 | 68 | 311 | 3.0 | 8.0 | 0.00 | 0.00 | 0.00 | 69 | 1010.0 |
| 20260831224150 | 67 | 301 | 3.0 | 7.0 | 0.00 | 0.00 | 0.00 | 68 | 1010.1 |
| 20260831223650 | 68 | 245 | 2.0 | 7.0 | 0.00 | 0.00 | 0.00 | 68 | 1010.1 |
| 20260831223418 | 68 | 332 | 2.0 | 8.0 | 0.00 | 0.00 | 0.00 | 70 | 1010.2 |
| 20260831222648 | 67 | 326 | 3.0 | 8.0 | 0.00 | 0.00 | 0.00 | 69 | 1010.1 |
| 20260831222149 | 66 | 331 | 3.0 | 9.0 | 0.00 | 0.00 | 0.00 | 70 | 1010.2 |
| 20260831221648 | 67 | 242 | 3.0 | 9.0 | 0.00 | 0.00 | 0.00 | 71 | 1010.3 |
| 20260831221148 | 67 | 309 | 2.0 | 7.0 | 0.00 | 0.00 | 0.00 | 72 | 1010.4 |
| 20260831220648 | 66 | 80 | 2.0 | 8.0 | 0.00 | 0.00 | 0.00 | 74 | 1010.5 |
| 20260831220146 | 66 | 324 | 3.0 | 8.0 | 0.00 | 0.00 | 0.00 | 72 | 1010.6 |
| 20260831215640 | 66 | 128 | 2.0 | 8.0 | 0.00 | 0.00 | 0.00 | 73 | 1010.7 |
| 20260831215405 | 66 | 295 | 2.0 | 8.0 | 0.00 | 0.00 | 0.00 | 74 | 1010.7 |
| 20260831214637 | 65 | 19 | 2.0 | 5.0 | 0.00 | 0.00 | 0.00 | 75 | 1010.8 |
| 20260831214138 | 66 | 249 | 2.0 | 5.0 | 0.00 | 0.00 | 0.00 | 75 | 1010.9 |
| 20260831213909 | 68 | 290 | 2.0 | 5.0 | 0.00 | 0.00 | 0.00 | 72 | 1010.9 |
| 20260831213137 | 66 | 260 | 2.0 | 8.0 | 0.00 | 0.00 | 0.00 | 74 | 1010.9 |
| 20260831212638 | 66 | 295 | 2.0 | 8.0 | 0.00 | 0.00 | 0.00 | 76 | 1011.0 |
| 20260831212411 | 65 | 319 | 3.0 | 7.0 | 0.00 | 0.00 | 0.00 | 77 | 1011.0 |
| 20260831211638 | 65 | 290 | 3.0 | 9.0 | 0.00 | 0.00 | 0.00 | 77 | 1011.0 |
| 20260831211139 | 65 | 330 | 3.0 | 9.0 | 0.00 | 0.00 | 0.00 | 76 | 1011.1 |
| 20260831210637 | 66 | 295 | 2.0 | 7.0 | 0.00 | 0.00 | 0.00 | 76 | 1011.0 |
| 20260831210138 | 66 | 310 | 2.0 | 5.0 | 0.00 | 0.00 | 0.00 | 74 | 1011.1 |
| 20260831205638 | 67 | 347 | 2.0 | 5.0 | 0.00 | 0.00 | 0.00 | 74 | 1011.2 |
| 20260831205138 | 67 | 295 | 2.0 | 5.0 | 0.00 | 0.00 | 0.00 | 74 | 1011.3 |
| 20260831204637 | 66 | 295 | 2.0 | 4.0 | 0.00 | 0.00 | 0.00 | 73 | 1011.3 |
| 20260831204138 | 66 | 22 | 2.0 | 5.0 | 0.00 | 0.00 | 0.00 | 74 | 1011.4 |